| time (UTC) | temp C | wind direction | speed KPH | gust KPH | rain 1hr cm | rain 24hr cm | rain mn cm | humidity % | barometer mb |
| 20260901231059 | 26 | 250 | 6.4 | 16.1 | 0.00 | 0.00 | 0.00 | 46 | 1013.4 |
| 20260901230559 | 26 | 271 | 6.4 | 16.1 | 0.00 | 0.00 | 0.00 | 47 | 1013.3 |
| 20260901230059 | 26 | 276 | 8.0 | 16.1 | 0.00 | 0.00 | 0.00 | 46 | 1013.4 |
| 20260901225559 | 26 | 281 | 6.4 | 16.1 | 0.00 | 0.00 | 0.00 | 46 | 1013.5 |
| 20260901225058 | 26 | 260 | 4.8 | 16.1 | 0.00 | 0.00 | 0.00 | 46 | 1013.4 |
| 20260901224605 | 26 | 286 | 4.8 | 17.7 | 0.00 | 0.00 | 0.00 | 46 | 1013.5 |
| 20260901224059 | 26 | 271 | 6.4 | 16.1 | 0.00 | 0.00 | 0.00 | 45 | 1013.5 |
| 20260901223558 | 26 | 286 | 6.4 | 17.7 | 0.00 | 0.00 | 0.00 | 47 | 1013.6 |
| 20260901223059 | 27 | 317 | 8.0 | 17.7 | 0.00 | 0.00 | 0.00 | 45 | 1013.5 |
| 20260901222558 | 27 | 265 | 4.8 | 17.7 | 0.00 | 0.00 | 0.00 | 46 | 1013.5 |
| 20260901222058 | 27 | 315 | 6.4 | 17.7 | 0.00 | 0.00 | 0.00 | 45 | 1013.7 |
| 20260901221607 | 27 | 286 | 6.4 | 16.1 | 0.00 | 0.00 | 0.00 | 45 | 1013.7 |
| 20260901221058 | 26 | 273 | 4.8 | 16.1 | 0.00 | 0.00 | 0.00 | 45 | 1013.9 |
| 20260901220556 | 26 | 300 | 6.4 | 19.3 | 0.00 | 0.00 | 0.00 | 45 | 1013.8 |
| 20260901220056 | 26 | 267 | 8.0 | 19.3 | 0.00 | 0.00 | 0.00 | 44 | 1013.8 |
| 20260901215558 | 26 | 276 | 6.4 | 19.3 | 0.00 | 0.00 | 0.00 | 44 | 1013.9 |
| 20260901215056 | 27 | 257 | 3.2 | 19.3 | 0.00 | 0.00 | 0.00 | 44 | 1013.7 |
| 20260901214557 | 26 | 262 | 9.7 | 19.3 | 0.00 | 0.00 | 0.00 | 43 | 1013.6 |
| 20260901214056 | 26 | 273 | 9.7 | 19.3 | 0.00 | 0.00 | 0.00 | 43 | 1013.5 |
| 20260901213600 | 26 | 240 | 6.4 | 16.1 | 0.00 | 0.00 | 0.00 | 44 | 1013.5 |
| 20260901213059 | 26 | 273 | 4.8 | 17.7 | 0.00 | 0.00 | 0.00 | 45 | 1013.5 |
| 20260901212558 | 26 | 267 | 9.7 | 17.7 | 0.00 | 0.00 | 0.00 | 45 | 1013.5 |
| 20260901212056 | 26 | 276 | 4.8 | 17.7 | 0.00 | 0.00 | 0.00 | 44 | 1013.5 |
| 20260901211556 | 27 | 290 | 6.4 | 16.1 | 0.00 | 0.00 | 0.00 | 44 | 1013.6 |
| 20260901211055 | 27 | 250 | 4.8 | 16.1 | 0.00 | 0.00 | 0.00 | 44 | 1013.6 |
| 20260901210558 | 27 | 299 | 6.4 | 17.7 | 0.00 | 0.00 | 0.00 | 43 | 1013.6 |
| 20260901210122 | 27 | 255 | 9.7 | 17.7 | 0.00 | 0.00 | 0.00 | 43 | 1013.7 |
| 20260901205554 | 27 | 289 | 3.2 | 16.1 | 0.00 | 0.00 | 0.00 | 43 | 1013.7 |
| 20260901205054 | 27 | 238 | 9.7 | 16.1 | 0.00 | 0.00 | 0.00 | 43 | 1013.6 |
| 20260901204553 | 27 | 228 | 8.0 | 19.3 | 0.00 | 0.00 | 0.00 | 41 | 1013.5 |
| 20260901204053 | 27 | 262 | 6.4 | 19.3 | 0.00 | 0.00 | 0.00 | 42 | 1013.5 |
| 20260901203554 | 27 | 261 | 6.4 | 19.3 | 0.00 | 0.00 | 0.00 | 42 | 1013.6 |
| 20260901203054 | 27 | 303 | 9.7 | 22.5 | 0.00 | 0.00 | 0.00 | 41 | 1013.5 |
| 20260901202554 | 27 | 257 | 3.2 | 22.5 | 0.00 | 0.00 | 0.00 | 42 | 1013.6 |
| 20260901202056 | 27 | 310 | 9.7 | 24.1 | 0.00 | 0.00 | 0.00 | 42 | 1013.5 |
| 20260901201554 | 28 | 307 | 6.4 | 24.1 | 0.00 | 0.00 | 0.00 | 43 | 1013.5 |
| 20260901201054 | 28 | 335 | 3.2 | 16.1 | 0.00 | 0.00 | 0.00 | 43 | 1013.5 |
| 20260901200554 | 28 | 303 | 3.2 | 14.5 | 0.00 | 0.00 | 0.00 | 44 | 1013.4 |
| 20260901200052 | 28 | 291 | 3.2 | 14.5 | 0.00 | 0.00 | 0.00 | 43 | 1013.4 |
| 20260901195552 | 28 | 226 | 3.2 | 17.7 | 0.00 | 0.00 | 0.00 | 45 | 1013.4 |
| 20260901195051 | 27 | 257 | 6.4 | 17.7 | 0.00 | 0.00 | 0.00 | 44 | 1013.6 |
| 20260901194602 | 27 | 237 | 4.8 | 19.3 | 0.00 | 0.00 | 0.00 | 45 | 1013.5 |
| 20260901194051 | 27 | 269 | 3.2 | 19.3 | 0.00 | 0.00 | 0.00 | 44 | 1013.7 |
| 20260901193555 | 27 | 276 | 4.8 | 17.7 | 0.00 | 0.00 | 0.00 | 46 | 1013.7 |
| 20260901193053 | 27 | 269 | 3.2 | 17.7 | 0.00 | 0.00 | 0.00 | 45 | 1013.8 |
| 20260901192551 | 27 | 255 | 3.2 | 17.7 | 0.00 | 0.00 | 0.00 | 45 | 1013.9 |
| 20260901192051 | 27 | 279 | 9.7 | 20.9 | 0.00 | 0.00 | 0.00 | 45 | 1013.9 |
| 20260901191600 | 27 | 269 | 1.6 | 16.1 | 0.00 | 0.00 | 0.00 | 47 | 1014.0 |
| 20260901191051 | 27 | 211 | 4.8 | 14.5 | 0.00 | 0.00 | 0.00 | 46 | 1014.1 |
| 20260901190549 | 27 | 306 | 4.8 | 14.5 | 0.00 | 0.00 | 0.00 | 45 | 1014.0 |
| 20260901190115 | 27 | 288 | 8.0 | 24.1 | 0.00 | 0.00 | 0.00 | 45 | 1014.0 |
| 20260901185549 | 27 | 243 | 9.7 | 24.1 | 0.00 | 0.00 | 0.00 | 43 | 1014.0 |
| 20260901185049 | 27 | 293 | 6.4 | 24.1 | 0.00 | 0.00 | 0.00 | 43 | 1014.0 |
| 20260901184549 | 28 | 288 | 6.4 | 25.7 | 0.00 | 0.00 | 0.00 | 42 | 1014.0 |
| 20260901184049 | 28 | 251 | 12.9 | 25.7 | 0.00 | 0.00 | 0.00 | 42 | 1014.0 |
| 20260901183548 | 28 | 276 | 8.0 | 19.3 | 0.00 | 0.00 | 0.00 | 42 | 1014.0 |
| 20260901183047 | 28 | 288 | 4.8 | 17.7 | 0.00 | 0.00 | 0.00 | 44 | 1014.0 |
| 20260901182545 | 28 | 244 | 6.4 | 17.7 | 0.00 | 0.00 | 0.00 | 43 | 1014.1 |
| 20260901182045 | 28 | 307 | 8.0 | 17.7 | 0.00 | 0.00 | 0.00 | 48 | 1014.2 |
| 20260901181544 | 27 | 259 | 3.2 | 14.5 | 0.00 | 0.00 | 0.00 | 46 | 1014.3 |
| 20260901181042 | 27 | 309 | 6.4 | 16.1 | 0.00 | 0.00 | 0.00 | 46 | 1014.3 |
| 20260901180541 | 27 | 304 | 8.0 | 22.5 | 0.00 | 0.00 | 0.00 | 47 | 1014.4 |
| 20260901180039 | 27 | 281 | 16.1 | 22.5 | 0.00 | 0.00 | 0.00 | 46 | 1014.5 |
| 20260901175537 | 27 | 279 | 6.4 | 22.5 | 0.00 | 0.00 | 0.00 | 46 | 1014.5 |
| 20260901175037 | 27 | 267 | 8.0 | 19.3 | 0.00 | 0.00 | 0.00 | 46 | 1014.6 |
| 20260901174547 | 27 | 232 | 6.4 | 22.5 | 0.00 | 0.00 | 0.00 | 48 | 1014.6 |
| 20260901174038 | 27 | 290 | 11.3 | 24.1 | 0.00 | 0.00 | 0.00 | 47 | 1014.6 |
| 20260901173536 | 27 | 17 | 8.0 | 24.1 | 0.00 | 0.00 | 0.00 | 47 | 1014.7 |
| 20260901173036 | 27 | 348 | 8.0 | 19.3 | 0.00 | 0.00 | 0.00 | 46 | 1014.7 |
| 20260901172535 | 27 | 279 | 6.4 | 17.7 | 0.00 | 0.00 | 0.00 | 47 | 1014.7 |
| 20260901172035 | 27 | 305 | 3.2 | 16.1 | 0.00 | 0.00 | 0.00 | 48 | 1014.6 |
| 20260901171533 | 26 | 310 | 4.8 | 16.1 | 0.00 | 0.00 | 0.00 | 47 | 1014.7 |
| 20260901171033 | 26 | 286 | 8.0 | 17.7 | 0.00 | 0.00 | 0.00 | 48 | 1014.7 |
| 20260901170535 | 26 | 305 | 8.0 | 22.5 | 0.00 | 0.00 | 0.00 | 47 | 1014.8 |
| 20260901170031 | 26 | 287 | 8.0 | 19.3 | 0.00 | 0.00 | 0.00 | 47 | 1014.7 |
| 20260901165535 | 26 | 250 | 9.7 | 17.7 | 0.00 | 0.00 | 0.00 | 48 | 1014.8 |
| 20260901165032 | 26 | 270 | 3.2 | 11.3 | 0.00 | 0.00 | 0.00 | 50 | 1014.7 |
| 20260901164533 | 26 | 215 | 4.8 | 16.1 | 0.00 | 0.00 | 0.00 | 48 | 1014.8 |
| 20260901164030 | 26 | 265 | 1.6 | 16.1 | 0.00 | 0.00 | 0.00 | 51 | 1014.9 |
| 20260901163528 | 26 | 305 | 4.8 | 11.3 | 0.00 | 0.00 | 0.00 | 51 | 1015.0 |
| 20260901163050 | 26 | 274 | 1.6 | 12.9 | 0.00 | 0.00 | 0.00 | 53 | 1015.0 |
| 20260901162525 | 26 | 272 | 6.4 | 14.5 | 0.00 | 0.00 | 0.00 | 52 | 1015.0 |
| 20260901162025 | 26 | 238 | 1.6 | 11.3 | 0.00 | 0.00 | 0.00 | 54 | 1014.9 |
| 20260901161524 | 26 | 337 | 3.2 | 12.9 | 0.00 | 0.00 | 0.00 | 55 | 1014.9 |
| 20260901161023 | 25 | 290 | 3.2 | 11.3 | 0.00 | 0.00 | 0.00 | 55 | 1014.9 |
| 20260901160521 | 25 | 229 | 4.8 | 8.0 | 0.00 | 0.00 | 0.00 | 56 | 1014.8 |
| 20260901160020 | 25 | 298 | 0.0 | 9.7 | 0.00 | 0.00 | 0.00 | 58 | 1014.7 |
| 20260901155519 | 25 | 273 | 1.6 | 9.7 | 0.00 | 0.00 | 0.00 | 56 | 1014.8 |
| 20260901155018 | 25 | 313 | 1.6 | 8.0 | 0.00 | 0.00 | 0.00 | 59 | 1014.7 |
| 20260901154532 | 25 | 284 | 1.6 | 11.3 | 0.00 | 0.00 | 0.00 | 60 | 1014.8 |
| 20260901154015 | 24 | 275 | 3.2 | 11.3 | 0.00 | 0.00 | 0.00 | 61 | 1015.0 |
| 20260901153514 | 23 | 285 | 1.6 | 12.9 | 0.00 | 0.00 | 0.00 | 61 | 1015.0 |
| 20260901153022 | 23 | 311 | 4.8 | 12.9 | 0.00 | 0.00 | 0.00 | 59 | 1015.1 |
| 20260901152510 | 23 | 273 | 3.2 | 9.7 | 0.00 | 0.00 | 0.00 | 61 | 1015.0 |
| 20260901152009 | 23 | 289 | 1.6 | 8.0 | 0.00 | 0.00 | 0.00 | 63 | 1014.9 |
| 20260901151511 | 23 | 281 | 3.2 | 6.4 | 0.00 | 0.00 | 0.00 | 64 | 1015.0 |
| 20260901151007 | 23 | 194 | 1.6 | 8.0 | 0.00 | 0.00 | 0.00 | 62 | 1015.0 |
| 20260901150505 | 22 | 280 | 3.2 | 8.0 | 0.00 | 0.00 | 0.00 | 65 | 1015.1 |
| 20260901150003 | 22 | 285 | 0.0 | 9.7 | 0.00 | 0.00 | 0.00 | 65 | 1015.1 |
| 20260901145500 | 22 | 258 | 1.6 | 8.0 | 0.00 | 0.00 | 0.00 | 64 | 1015.1 |
| 20260901145059 | 21 | 293 | 3.2 | 9.7 | 0.00 | 0.00 | 0.00 | 65 | 1015.2 |
| 20260901144601 | 21 | 254 | 3.2 | 11.3 | 0.00 | 0.00 | 0.00 | 66 | 1015.2 |
| 20260901144101 | 21 | 287 | 0.0 | 11.3 | 0.00 | 0.00 | 0.00 | 67 | 1015.1 |
| 20260901143556 | 20 | 266 | 3.2 | 8.0 | 0.00 | 0.00 | 0.00 | 67 | 1015.1 |
| 20260901143055 | 20 | 229 | 3.2 | 9.7 | 0.00 | 0.00 | 0.00 | 70 | 1015.2 |
| 20260901142554 | 19 | 249 | 1.6 | 6.4 | 0.00 | 0.00 | 0.00 | 72 | 1015.3 |
| 20260901142052 | 18 | 240 | 1.6 | 11.3 | 0.00 | 0.00 | 0.00 | 73 | 1015.3 |
| 20260901141551 | 18 | 291 | 3.2 | 11.3 | 0.00 | 0.00 | 0.00 | 75 | 1015.2 |
| 20260901141050 | 17 | 296 | 1.6 | 9.7 | 0.00 | 0.00 | 0.00 | 75 | 1015.3 |
| 20260901140548 | 17 | 269 | 3.2 | 9.7 | 0.00 | 0.00 | 0.00 | 76 | 1015.3 |
| 20260901140058 | 17 | 251 | 0.0 | 4.8 | 0.00 | 0.00 | 0.00 | 78 | 1015.2 |
| 20260901135549 | 16 | 251 | 1.6 | 8.0 | 0.00 | 0.00 | 0.00 | 77 | 1015.3 |
| 20260901135049 | 16 | 261 | 1.6 | 8.0 | 0.00 | 0.00 | 0.00 | 78 | 1015.3 |
| 20260901134559 | 16 | 243 | 1.6 | 8.0 | 0.00 | 0.00 | 0.00 | 79 | 1015.4 |
| 20260901134048 | 16 | 234 | 3.2 | 9.7 | 0.00 | 0.00 | 0.00 | 79 | 1015.3 |
| 20260901133547 | 15 | 213 | 4.8 | 11.3 | 0.00 | 0.00 | 0.00 | 79 | 1015.4 |
| 20260901133100 | 15 | 190 | 4.8 | 12.9 | 0.00 | 0.00 | 0.00 | 79 | 1015.4 |
| 20260901132550 | 15 | 206 | 4.8 | 11.3 | 0.00 | 0.00 | 0.00 | 80 | 1015.3 |
| 20260901132047 | 15 | 219 | 1.6 | 11.3 | 0.00 | 0.00 | 0.00 | 81 | 1015.2 |
| 20260901131551 | 15 | 200 | 3.2 | 8.0 | 0.00 | 0.00 | 0.00 | 82 | 1015.2 |
| 20260901131047 | 15 | 207 | 3.2 | 9.7 | 0.00 | 0.00 | 0.00 | 82 | 1015.1 |
| 20260901130544 | 15 | 203 | 1.6 | 9.7 | 0.00 | 0.00 | 0.00 | 82 | 1015.1 |
| 20260901130044 | 15 | 191 | 1.6 | 9.7 | 0.00 | 0.00 | 0.00 | 81 | 1015.1 |
| 20260901125543 | 15 | 211 | 3.2 | 9.7 | 0.00 | 0.00 | 0.00 | 80 | 1015.0 |
| 20260901125043 | 15 | 167 | 1.6 | 9.7 | 0.00 | 0.00 | 0.00 | 80 | 1015.0 |
| 20260901124542 | 15 | 197 | 3.2 | 11.3 | 0.00 | 0.00 | 0.00 | 80 | 1014.9 |
| 20260901124041 | 15 | 185 | 6.4 | 11.3 | 0.00 | 0.00 | 0.00 | 81 | 1014.7 |
| 20260901123539 | 15 | 207 | 1.6 | 3.2 | 0.00 | 0.00 | 0.00 | 81 | 1014.7 |
| 20260901123041 | 15 | 207 | 0.0 | 4.8 | 0.00 | 0.00 | 0.00 | 80 | 1014.6 |
| 20260901122538 | 15 | 209 | 1.6 | 4.8 | 0.00 | 0.00 | 0.00 | 79 | 1014.5 |
| 20260901122037 | 15 | 229 | 0.0 | 3.2 | 0.00 | 0.00 | 0.00 | 79 | 1014.3 |
| 20260901121545 | 15 | 229 | 0.0 | 4.8 | 0.00 | 0.00 | 0.00 | 79 | 1014.3 |
| 20260901121037 | 15 | 230 | 1.6 | 4.8 | 0.00 | 0.00 | 0.00 | 79 | 1014.3 |
| 20260901120536 | 15 | 259 | 1.6 | 4.8 | 0.00 | 0.00 | 0.00 | 79 | 1014.2 |
| 20260901120038 | 15 | 277 | 0.0 | 4.8 | 0.00 | 0.00 | 0.00 | 79 | 1014.2 |
| 20260901115537 | 15 | 277 | 1.6 | 6.4 | 0.00 | 0.00 | 0.00 | 79 | 1014.1 |
| 20260901115034 | 15 | 277 | 3.2 | 6.4 | 0.00 | 0.00 | 0.00 | 79 | 1014.1 |
| 20260901114534 | 15 | 271 | 1.6 | 6.4 | 0.00 | 0.00 | 0.00 | 78 | 1014.1 |
| 20260901114033 | 15 | 269 | 0.0 | 4.8 | 0.00 | 0.00 | 0.00 | 78 | 1014.1 |
| 20260901113533 | 15 | 251 | 0.0 | 4.8 | 0.00 | 0.00 | 0.00 | 78 | 1014.1 |
| 20260901113033 | 15 | 259 | 1.6 | 9.7 | 0.00 | 0.00 | 0.00 | 78 | 1014.1 |
| 20260901112531 | 15 | 261 | 3.2 | 9.7 | 0.00 | 0.00 | 0.00 | 78 | 1013.9 |
| 20260901112031 | 15 | 285 | 4.8 | 9.7 | 0.00 | 0.00 | 0.00 | 78 | 1013.7 |
| 20260901111531 | 15 | 274 | 4.8 | 9.7 | 0.00 | 0.00 | 0.00 | 79 | 1013.7 |
| 20260901111033 | 15 | 276 | 4.8 | 9.7 | 0.00 | 0.00 | 0.00 | 79 | 1013.8 |
| 20260901110529 | 15 | 264 | 3.2 | 6.4 | 0.00 | 0.00 | 0.00 | 79 | 1013.6 |
| 20260901110030 | 15 | 263 | 3.2 | 6.4 | 0.00 | 0.00 | 0.00 | 79 | 1013.9 |
| 20260901105530 | 15 | 269 | 0.0 | 6.4 | 0.00 | 0.00 | 0.00 | 79 | 1013.8 |
| 20260901105128 | 15 | 269 | 0.0 | 6.4 | 0.00 | 0.00 | 0.00 | 79 | 1013.7 |
| 20260901104537 | 15 | 254 | 3.2 | 6.4 | 0.00 | 0.00 | 0.00 | 79 | 1013.5 |
| 20260901104030 | 15 | 250 | 0.0 | 4.8 | 0.00 | 0.00 | 0.00 | 79 | 1013.5 |
| 20260901103528 | 15 | 250 | 0.0 | 3.2 | 0.00 | 0.00 | 0.00 | 79 | 1013.5 |
| 20260901103033 | 15 | 250 | 0.0 | 3.2 | 0.00 | 0.00 | 0.00 | 79 | 1013.5 |
| 20260901102527 | 15 | 250 | 0.0 | 1.6 | 0.00 | 0.00 | 0.00 | 79 | 1013.6 |
| 20260901102026 | 15 | 250 | 0.0 | 1.6 | 0.00 | 0.00 | 0.00 | 78 | 1013.4 |
| 20260901101525 | 15 | 250 | 0.0 | 3.2 | 0.00 | 0.00 | 0.00 | 78 | 1013.5 |
| 20260901101025 | 15 | 250 | 0.0 | 3.2 | 0.00 | 0.00 | 0.00 | 78 | 1013.4 |
| 20260901100524 | 15 | 250 | 1.6 | 3.2 | 0.00 | 0.00 | 0.00 | 77 | 1013.3 |
| 20260901100023 | 15 | 250 | 0.0 | 1.6 | 0.00 | 0.00 | 0.00 | 77 | 1013.3 |
| 20260901095522 | 15 | 250 | 0.0 | 1.6 | 0.00 | 0.00 | 0.00 | 77 | 1013.3 |
| 20260901095022 | 15 | 250 | 0.0 | 3.2 | 0.00 | 0.00 | 0.00 | 76 | 1013.3 |
| 20260901094523 | 15 | 250 | 0.0 | 3.2 | 0.00 | 0.00 | 0.00 | 76 | 1013.4 |
| 20260901094021 | 15 | 250 | 0.0 | 0.0 | 0.00 | 0.00 | 0.00 | 76 | 1013.3 |
| 20260901093520 | 16 | 250 | 0.0 | 0.0 | 0.00 | 0.00 | 0.00 | 75 | 1013.2 |
| 20260901093020 | 16 | 250 | 0.0 | 0.0 | 0.00 | 0.00 | 0.00 | 75 | 1013.2 |
| 20260901092519 | 16 | 250 | 0.0 | 0.0 | 0.00 | 0.00 | 0.00 | 74 | 1013.2 |
| 20260901092018 | 16 | 250 | 0.0 | 0.0 | 0.00 | 0.00 | 0.00 | 74 | 1013.1 |
| 20260901091518 | 16 | 250 | 0.0 | 1.6 | 0.00 | 0.00 | 0.00 | 73 | 1013.2 |
| 20260901091017 | 16 | 250 | 0.0 | 4.8 | 0.00 | 0.00 | 0.00 | 73 | 1013.2 |
| 20260901090516 | 16 | 250 | 0.0 | 4.8 | 0.00 | 0.00 | 0.00 | 73 | 1013.2 |
| 20260901090025 | 16 | 249 | 0.0 | 0.0 | 0.00 | 0.00 | 0.00 | 73 | 1013.2 |
| 20260901085515 | 16 | 249 | 0.0 | 0.0 | 0.00 | 0.03 | 0.00 | 72 | 1013.2 |
| 20260901085014 | 16 | 249 | 0.0 | 0.0 | 0.00 | 0.03 | 0.00 | 72 | 1013.2 |
| 20260901084514 | 16 | 249 | 0.0 | 0.0 | 0.00 | 0.03 | 0.00 | 72 | 1013.2 |
| 20260901084013 | 17 | 249 | 0.0 | 3.2 | 0.00 | 0.03 | 0.00 | 71 | 1013.1 |
| 20260901083513 | 17 | 249 | 0.0 | 3.2 | 0.00 | 0.03 | 0.00 | 71 | 1013.0 |
| 20260901083013 | 17 | 259 | 0.0 | 4.8 | 0.00 | 0.03 | 0.00 | 71 | 1013.1 |
| 20260901082512 | 17 | 259 | 1.6 | 4.8 | 0.00 | 0.03 | 0.00 | 71 | 1013.0 |
| 20260901082011 | 17 | 259 | 1.6 | 4.8 | 0.00 | 0.03 | 0.00 | 70 | 1013.0 |
| 20260901081511 | 17 | 259 | 0.0 | 4.8 | 0.00 | 0.03 | 0.00 | 70 | 1013.0 |
| 20260901081010 | 17 | 259 | 0.0 | 4.8 | 0.00 | 0.03 | 0.00 | 70 | 1013.0 |
| 20260901080510 | 17 | 258 | 0.0 | 6.4 | 0.00 | 0.03 | 0.00 | 69 | 1013.0 |
| 20260901080014 | 17 | 257 | 1.6 | 9.7 | 0.00 | 0.03 | 0.00 | 69 | 1013.1 |
| 20260901075508 | 17 | 277 | 4.8 | 9.7 | 0.00 | 0.03 | 0.00 | 68 | 1013.1 |
| 20260901075007 | 17 | 281 | 4.8 | 9.7 | 0.00 | 0.03 | 0.00 | 68 | 1013.2 |
| 20260901074507 | 18 | 248 | 1.6 | 6.4 | 0.00 | 0.03 | 0.00 | 68 | 1013.1 |
| 20260901074006 | 18 | 246 | 0.0 | 4.8 | 0.00 | 0.03 | 0.00 | 67 | 1013.1 |
| 20260901073505 | 18 | 247 | 0.0 | 6.4 | 0.00 | 0.03 | 0.00 | 67 | 1013.1 |
| 20260901073016 | 18 | 260 | 1.6 | 9.7 | 0.00 | 0.03 | 0.00 | 67 | 1013.1 |
| 20260901072504 | 18 | 237 | 3.2 | 11.3 | 0.00 | 0.03 | 0.00 | 66 | 1013.2 |
| 20260901072004 | 18 | 273 | 3.2 | 11.3 | 0.00 | 0.03 | 0.00 | 66 | 1013.3 |
| 20260901071502 | 18 | 277 | 3.2 | 6.4 | 0.00 | 0.03 | 0.00 | 66 | 1013.3 |
| 20260901071003 | 18 | 275 | 3.2 | 11.3 | 0.00 | 0.03 | 0.00 | 65 | 1013.3 |
| 20260901070501 | 18 | 248 | 3.2 | 11.3 | 0.00 | 0.03 | 0.00 | 65 | 1013.3 |
| 20260901070001 | 18 | 277 | 4.8 | 11.3 | 0.00 | 0.03 | 0.00 | 65 | 1013.4 |
| 20260901065501 | 19 | 253 | 4.8 | 12.9 | 0.00 | 0.03 | 0.00 | 65 | 1013.3 |
| 20260901065001 | 19 | 264 | 4.8 | 12.9 | 0.00 | 0.03 | 0.00 | 64 | 1013.4 |
| 20260901064502 | 19 | 238 | 6.4 | 11.3 | 0.00 | 0.03 | 0.00 | 64 | 1013.4 |
| 20260901064002 | 19 | 275 | 4.8 | 11.3 | 0.00 | 0.03 | 0.00 | 64 | 1013.4 |
| 20260901063501 | 20 | 263 | 4.8 | 12.9 | 0.00 | 0.03 | 0.00 | 64 | 1013.3 |
| 20260901063132 | 20 | 279 | 3.2 | 14.5 | 0.00 | 0.03 | 0.00 | 64 | 1013.4 |
| 20260901062559 | 20 | 302 | 6.4 | 14.5 | 0.00 | 0.03 | 0.00 | 64 | 1013.3 |
| 20260901062059 | 20 | 290 | 4.8 | 16.1 | 0.00 | 0.03 | 0.00 | 64 | 1013.3 |
| 20260901061602 | 20 | 294 | 8.0 | 17.7 | 0.00 | 0.03 | 0.00 | 64 | 1013.2 |
| 20260901061059 | 20 | 278 | 8.0 | 17.7 | 0.00 | 0.03 | 0.00 | 64 | 1013.1 |
| 20260901060602 | 20 | 267 | 8.0 | 17.7 | 0.00 | 0.03 | 0.00 | 65 | 1013.1 |
| 20260901060056 | 20 | 273 | 8.0 | 17.7 | 0.00 | 0.03 | 0.00 | 65 | 1013.1 |
| 20260901055555 | 20 | 265 | 6.4 | 16.1 | 0.00 | 0.76 | 0.00 | 67 | 1013.0 |
| 20260901055054 | 19 | 220 | 6.4 | 16.1 | 0.00 | 0.76 | 0.00 | 69 | 1013.0 |
| 20260901054553 | 19 | 294 | 8.0 | 12.9 | 0.00 | 0.76 | 0.00 | 72 | 1013.0 |
| 20260901054053 | 18 | 286 | 4.8 | 14.5 | 0.00 | 0.76 | 0.00 | 74 | 1013.0 |
| 20260901053553 | 18 | 277 | 4.8 | 11.3 | 0.00 | 0.76 | 0.00 | 75 | 1012.9 |
| 20260901053057 | 18 | 268 | 4.8 | 9.7 | 0.00 | 0.76 | 0.00 | 76 | 1012.9 |
| 20260901052550 | 18 | 225 | 0.0 | 8.0 | 0.00 | 0.76 | 0.00 | 75 | 1012.4 |
| 20260901052049 | 18 | 211 | 3.2 | 8.0 | 0.00 | 0.76 | 0.00 | 75 | 1012.2 |
| 20260901051553 | 19 | 205 | 3.2 | 8.0 | 0.00 | 0.76 | 0.00 | 74 | 1012.2 |
| 20260901051048 | 19 | 197 | 3.2 | 8.0 | 0.00 | 0.76 | 0.00 | 73 | 1012.2 |
| 20260901050546 | 19 | 209 | 3.2 | 8.0 | 0.00 | 0.76 | 0.00 | 73 | 1012.1 |
| 20260901050045 | 19 | 199 | 3.2 | 8.0 | 0.00 | 0.76 | 0.00 | 72 | 1012.1 |
| 20260901045543 | 19 | 228 | 3.2 | 8.0 | 0.00 | 0.76 | 0.76 | 71 | 1012.0 |
| 20260901045044 | 20 | 234 | 3.2 | 9.7 | 0.00 | 0.76 | 0.76 | 71 | 1012.1 |
| 20260901044544 | 20 | 192 | 4.8 | 9.7 | 0.00 | 0.76 | 0.76 | 70 | 1012.1 |
| 20260901044044 | 20 | 213 | 4.8 | 11.3 | 0.00 | 0.76 | 0.76 | 70 | 1012.1 |
| 20260901043544 | 20 | 212 | 4.8 | 12.9 | 0.00 | 0.76 | 0.76 | 69 | 1012.0 |
| 20260901043046 | 20 | 221 | 4.8 | 12.9 | 0.00 | 0.76 | 0.76 | 68 | 1012.0 |
| 20260901042544 | 20 | 206 | 4.8 | 9.7 | 0.00 | 0.76 | 0.76 | 67 | 1012.0 |
| 20260901042043 | 21 | 211 | 4.8 | 9.7 | 0.00 | 0.76 | 0.76 | 67 | 1011.9 |
| 20260901041543 | 21 | 192 | 4.8 | 9.7 | 0.00 | 0.76 | 0.76 | 66 | 1011.9 |
| 20260901041043 | 21 | 184 | 3.2 | 9.7 | 0.00 | 0.76 | 0.76 | 66 | 1011.9 |
| 20260901040543 | 21 | 244 | 4.8 | 9.7 | 0.00 | 0.76 | 0.76 | 66 | 1011.9 |
| 20260901040042 | 21 | 190 | 1.6 | 9.7 | 0.00 | 0.76 | 0.76 | 65 | 1011.9 |
| 20260901035542 | 21 | 223 | 3.2 | 11.3 | 0.00 | 0.76 | 0.76 | 65 | 1011.9 |
| 20260901035043 | 21 | 217 | 4.8 | 11.3 | 0.00 | 0.76 | 0.76 | 65 | 1011.8 |
| 20260901034548 | 21 | 197 | 6.4 | 9.7 | 0.00 | 0.76 | 0.76 | 64 | 1011.9 |
| 20260901034041 | 21 | 194 | 4.8 | 9.7 | 0.00 | 0.76 | 0.76 | 63 | 1011.9 |
| 20260901033541 | 21 | 185 | 4.8 | 9.7 | 0.00 | 0.76 | 0.76 | 63 | 1011.8 |
| 20260901033044 | 21 | 219 | 3.2 | 9.7 | 0.00 | 0.76 | 0.76 | 62 | 1012.3 |
| 20260901032541 | 22 | 202 | 4.8 | 11.3 | 0.00 | 0.76 | 0.76 | 61 | 1011.9 |
| 20260901032040 | 22 | 202 | 4.8 | 12.9 | 0.00 | 0.76 | 0.76 | 61 | 1011.8 |
| 20260901031547 | 22 | 189 | 6.4 | 12.9 | 0.00 | 0.76 | 0.76 | 60 | 1011.9 |
| 20260901031041 | 22 | 197 | 4.8 | 11.3 | 0.00 | 0.76 | 0.76 | 59 | 1011.9 |
| 20260901030542 | 22 | 191 | 4.8 | 9.7 | 0.00 | 0.76 | 0.76 | 59 | 1011.8 |
| 20260901030041 | 22 | 194 | 4.8 | 9.7 | 0.00 | 0.76 | 0.76 | 58 | 1011.8 |
| 20260901025540 | 23 | 225 | 4.8 | 11.3 | 0.00 | 0.76 | 0.76 | 57 | 1011.9 |
| 20260901025040 | 23 | 215 | 1.6 | 11.3 | 0.00 | 0.76 | 0.76 | 57 | 1011.9 |
| 20260901024540 | 23 | 221 | 1.6 | 9.7 | 0.00 | 0.76 | 0.76 | 56 | 1011.9 |
| 20260901024044 | 23 | 230 | 4.8 | 9.7 | 0.00 | 0.76 | 0.76 | 55 | 1011.9 |
| 20260901023539 | 23 | 236 | 3.2 | 8.0 | 0.00 | 0.76 | 0.76 | 55 | 1011.8 |
| 20260901023041 | 23 | 229 | 0.0 | 4.8 | 0.00 | 0.76 | 0.76 | 54 | 1011.8 |
| 20260901022539 | 23 | 257 | 0.0 | 9.7 | 0.00 | 0.76 | 0.76 | 53 | 1011.7 |
| 20260901022039 | 23 | 190 | 4.8 | 14.5 | 0.00 | 0.76 | 0.76 | 52 | 1011.5 |
| 20260901021550 | 23 | 244 | 4.8 | 14.5 | 0.00 | 0.76 | 0.76 | 51 | 1011.5 |
| 20260901021042 | 23 | 197 | 4.8 | 11.3 | 0.00 | 0.76 | 0.76 | 49 | 1011.4 |
| 20260901020539 | 23 | 188 | 4.8 | 11.3 | 0.00 | 0.76 | 0.76 | 48 | 1011.3 |
| 20260901020038 | 24 | 200 | 4.8 | 11.3 | 0.00 | 0.76 | 0.76 | 47 | 1011.2 |
| 20260901015539 | 24 | 197 | 6.4 | 12.9 | 0.00 | 0.76 | 0.76 | 46 | 1011.1 |
| 20260901015038 | 25 | 177 | 6.4 | 12.9 | 0.00 | 0.76 | 0.76 | 46 | 1011.1 |
| 20260901014539 | 25 | 205 | 4.8 | 9.7 | 0.00 | 0.76 | 0.76 | 45 | 1011.0 |
| 20260901014037 | 25 | 191 | 4.8 | 9.7 | 0.00 | 0.76 | 0.76 | 44 | 1010.9 |
| 20260901013537 | 25 | 199 | 3.2 | 8.0 | 0.00 | 0.76 | 0.76 | 43 | 1010.8 |
| 20260901013055 | 26 | 223 | 3.2 | 11.3 | 0.00 | 0.76 | 0.76 | 43 | 1010.9 |
| 20260901012536 | 26 | 190 | 3.2 | 11.3 | 0.00 | 0.76 | 0.76 | 42 | 1010.8 |
| 20260901012040 | 26 | 216 | 6.4 | 12.9 | 0.00 | 0.76 | 0.76 | 42 | 1010.7 |
| 20260901011537 | 26 | 229 | 3.2 | 12.9 | 0.00 | 0.76 | 0.76 | 41 | 1010.7 |
| 20260901011036 | 26 | 213 | 4.8 | 11.3 | 0.00 | 0.76 | 0.76 | 41 | 1010.6 |
| 20260901010536 | 26 | 213 | 4.8 | 12.9 | 0.00 | 0.76 | 0.76 | 40 | 1010.7 |
| 20260901010047 | 27 | 211 | 3.2 | 11.3 | 0.00 | 0.76 | 0.76 | 39 | 1010.7 |
| 20260901005536 | 27 | 207 | 4.8 | 14.5 | 0.00 | 0.76 | 0.76 | 39 | 1010.6 |
| 20260901005035 | 27 | 222 | 3.2 | 14.5 | 0.00 | 0.76 | 0.76 | 39 | 1010.5 |
| 20260901004538 | 27 | 194 | 3.2 | 14.5 | 0.00 | 0.76 | 0.76 | 38 | 1010.6 |
| 20260901004035 | 27 | 199 | 4.8 | 16.1 | 0.00 | 0.76 | 0.76 | 38 | 1010.6 |
| 20260901003539 | 27 | 213 | 6.4 | 16.1 | 0.00 | 0.76 | 0.76 | 37 | 1010.6 |
| 20260901003035 | 27 | 216 | 4.8 | 20.9 | 0.00 | 0.76 | 0.76 | 37 | 1010.6 |
| 20260901002535 | 28 | 256 | 6.4 | 27.4 | 0.00 | 0.76 | 0.76 | 37 | 1010.5 |
| 20260901002035 | 28 | 184 | 8.0 | 27.4 | 0.00 | 0.76 | 0.76 | 36 | 1010.4 |
| 20260901001536 | 28 | 185 | 4.8 | 19.3 | 0.00 | 0.76 | 0.76 | 36 | 1010.4 |
| 20260901001034 | 28 | 217 | 6.4 | 19.3 | 0.00 | 0.76 | 0.76 | 36 | 1010.3 |
| 20260901000534 | 28 | 335 | 8.0 | 17.7 | 0.00 | 0.76 | 0.76 | 35 | 1010.3 |
| 20260901000034 | 28 | 227 | 6.4 | 20.9 | 0.00 | 0.76 | 0.76 | 35 | 1010.4 |
| 20260831235534 | 28 | 213 | 8.0 | 27.4 | 0.00 | 0.76 | 0.76 | 35 | 1010.4 |
| 20260831235035 | 28 | 198 | 9.7 | 27.4 | 0.00 | 0.76 | 0.76 | 35 | 1010.3 |
| 20260831234534 | 28 | 208 | 8.0 | 22.5 | 0.00 | 0.76 | 0.76 | 35 | 1010.3 |
| 20260831234035 | 28 | 329 | 9.7 | 22.5 | 0.00 | 0.76 | 0.76 | 34 | 1010.3 |
| 20260831233533 | 28 | 346 | 6.4 | 24.1 | 0.00 | 0.76 | 0.76 | 35 | 1010.3 |
| 20260831233032 | 28 | 209 | 4.8 | 17.7 | 0.00 | 0.76 | 0.76 | 35 | 1010.3 |
| 20260831232534 | 28 | 283 | 6.4 | 24.1 | 0.00 | 0.76 | 0.76 | 34 | 1010.4 |
| 20260831232034 | 29 | 213 | 9.7 | 30.6 | 0.00 | 0.76 | 0.76 | 33 | 1010.4 |
| 20260831231533 | 29 | 246 | 11.3 | 30.6 | 0.00 | 0.76 | 0.76 | 33 | 1010.5 |